DELWG EDFM-EDFH

Flight info

Callsign DELWG
Flight time 0h 38m
Altitude
Route
Aircraft C152

Departure

Time 2026-04-26 17:26
Airport Mannheim-City Airport (EDFM)

Arrival

Time 2026-04-26 18:05
Airport Frankfurt-Hahn Airport (EDFH)
Time Latitude Longitude Altitude Speed Heading
2026-04-26 17:22 49.47676 8.51983 311 ft 0 kts 181°
2026-04-26 17:23 49.47661 8.52003 309 ft 8 kts 141°
2026-04-26 17:23 49.47590 8.52016 309 ft 9 kts 135°
2026-04-26 17:23 49.47585 8.52128 309 ft 12 kts 91°
2026-04-26 17:23 49.47562 8.52176 309 ft 7 kts 188°
2026-04-26 17:24 49.47492 8.52168 309 ft 15 kts 183°
2026-04-26 17:24 49.47365 8.52157 309 ft 14 kts 186°
2026-04-26 17:24 49.47335 8.52155 309 ft 0 kts 180°
2026-04-26 17:25 49.47279 8.52150 308 ft 13 kts 186°
2026-04-26 17:25 49.47247 8.52109 307 ft 9 kts 276°
2026-04-26 17:25 49.47261 8.51762 306 ft 60 kts 271°
2026-04-26 17:25 49.47287 8.51032 460 ft 73 kts 285°
2026-04-26 17:26 49.47311 8.50241 712 ft 70 kts 279°
2026-04-26 17:26 49.47359 8.49484 952 ft 70 kts 284°
2026-04-26 17:26 49.47378 8.48726 1189 ft 74 kts 277°
2026-04-26 17:26 49.47326 8.47957 1474 ft 72 kts 270°
2026-04-26 17:27 49.47346 8.47179 1648 ft 76 kts 298°
2026-04-26 17:27 49.47699 8.46563 1800 ft 82 kts 323°
2026-04-26 17:27 49.48185 8.46033 1921 ft 87 kts 331°
2026-04-26 17:27 49.48752 8.45617 1963 ft 96 kts 337°
2026-04-26 17:28 49.49377 8.45193 2004 ft 98 kts 339°
2026-04-26 17:28 49.50029 8.44818 1981 ft 102 kts 344°
2026-04-26 17:28 49.50692 8.44511 2016 ft 100 kts 344°
2026-04-26 17:28 49.51347 8.44202 2018 ft 99 kts 346°
2026-04-26 17:29 49.52014 8.43879 1964 ft 100 kts 345°
2026-04-26 17:29 49.52226 8.43768 1961 ft 99 kts 345°
2026-04-26 17:29 49.53315 8.43194 1915 ft 100 kts 345°
2026-04-26 17:29 49.53976 8.42921 1937 ft 97 kts 349°
2026-04-26 17:30 49.54403 8.42756 1931 ft 95 kts 348°
2026-04-26 17:30 49.55051 8.42500 1881 ft 96 kts 345°
2026-04-26 17:30 49.55605 8.41935 1917 ft 97 kts 315°
2026-04-26 17:30 49.56015 8.40732 2059 ft 95 kts 302°
2026-04-26 17:31 49.56202 8.40106 2132 ft 95 kts 300°
2026-04-26 17:31 49.56466 8.39164 2265 ft 97 kts 299°
2026-04-26 17:31 49.56713 8.38210 2404 ft 96 kts 298°
2026-04-26 17:31 49.57057 8.36959 2611 ft 95 kts 299°
2026-04-26 17:32 49.57089 8.36839 2630 ft 95 kts 298°
2026-04-26 17:32 49.57210 8.36317 2697 ft 96 kts 294°
2026-04-26 17:32 49.57417 8.35333 2835 ft 95 kts 292°
2026-04-26 17:32 49.57600 8.34364 2957 ft 95 kts 288°
2026-04-26 17:33 49.57703 8.33334 3046 ft 99 kts 284°
2026-04-26 17:33 49.57796 8.32286 3165 ft 98 kts 287°
2026-04-26 17:33 49.57940 8.31269 3295 ft 97 kts 288°
2026-04-26 17:34 49.58226 8.29276 3566 ft 93 kts 289°
2026-04-26 17:34 49.58371 8.28300 3691 ft 93 kts 289°
2026-04-26 17:34 49.58520 8.27325 3818 ft 93 kts 289°
2026-04-26 17:34 49.58672 8.26351 3941 ft 93 kts 288°
2026-04-26 17:35 49.58825 8.25385 4069 ft 92 kts 289°
2026-04-26 17:35 49.58982 8.24432 4192 ft 90 kts 290°
2026-04-26 17:35 49.59139 8.23493 4320 ft 92 kts 290°
2026-04-26 17:35 49.59302 8.22549 4448 ft 94 kts 291°
2026-04-26 17:36 49.59474 8.21585 4571 ft 93 kts 291°
2026-04-26 17:36 49.59648 8.20638 4703 ft 91 kts 290°
2026-04-26 17:36 49.59823 8.19697 4834 ft 91 kts 290°
2026-04-26 17:36 49.60001 8.18757 4963 ft 92 kts 291°
2026-04-26 17:37 49.60185 8.17811 5081 ft 92 kts 292°
2026-04-26 17:37 49.60385 8.16820 5076 ft 99 kts 292°
2026-04-26 17:37 49.60625 8.15810 5082 ft 100 kts 307°
2026-04-26 17:38 49.61504 8.14210 5084 ft 100 kts 306°
2026-04-26 17:38 49.61877 8.13308 5084 ft 100 kts 305°
2026-04-26 17:38 49.62232 8.12411 5188 ft 95 kts 304°
2026-04-26 17:38 49.62565 8.11554 5304 ft 91 kts 304°
2026-04-26 17:39 49.62892 8.10708 5328 ft 93 kts 304°
2026-04-26 17:39 49.63232 8.09823 5329 ft 97 kts 304°
2026-04-26 17:39 49.63577 8.08918 5335 ft 99 kts 304°
2026-04-26 17:39 49.63926 8.08006 5340 ft 101 kts 304°
2026-04-26 17:40 49.64279 8.07078 5349 ft 98 kts 304°
2026-04-26 17:40 49.64498 8.06496 5433 ft 89 kts 304°
2026-04-26 17:40 49.64900 8.05435 5594 ft 85 kts 304°
2026-04-26 17:40 49.65204 8.04637 5718 ft 85 kts 304°
2026-04-26 17:41 49.65502 8.03853 5838 ft 85 kts 304°
2026-04-26 17:41 49.65804 8.03057 5963 ft 87 kts 304°
2026-04-26 17:41 49.66107 8.02259 6084 ft 85 kts 304°
2026-04-26 17:41 49.66400 8.01485 6211 ft 84 kts 304°
2026-04-26 17:42 49.66693 8.00714 6335 ft 80 kts 304°
2026-04-26 17:42 49.66979 7.99960 6398 ft 86 kts 304°
2026-04-26 17:42 49.67300 7.99119 6334 ft 97 kts 303°
2026-04-26 17:42 49.67650 7.98197 6270 ft 101 kts 303°
2026-04-26 17:43 49.68010 7.97248 6205 ft 103 kts 303°
2026-04-26 17:43 49.68377 7.96280 6134 ft 106 kts 303°
2026-04-26 17:43 49.68747 7.95300 6076 ft 104 kts 303°
2026-04-26 17:43 49.69100 7.94364 6102 ft 97 kts 304°
2026-04-26 17:44 49.69440 7.93464 6121 ft 97 kts 304°
2026-04-26 17:44 49.69780 7.92565 6144 ft 97 kts 304°
2026-04-26 17:44 49.70118 7.91671 6172 ft 95 kts 303°
2026-04-26 17:44 49.70456 7.90778 6183 ft 98 kts 303°
2026-04-26 17:45 49.70802 7.89862 6186 ft 100 kts 303°
2026-04-26 17:45 49.71151 7.88936 6184 ft 99 kts 303°
2026-04-26 17:45 49.71498 7.88022 6182 ft 99 kts 303°
2026-04-26 17:45 49.71839 7.87113 6185 ft 98 kts 303°
2026-04-26 17:46 49.72184 7.86198 6184 ft 98 kts 304°
2026-04-26 17:46 49.72527 7.85287 6184 ft 98 kts 304°
2026-04-26 17:46 49.72872 7.84376 6188 ft 100 kts 304°
2026-04-26 17:46 49.73222 7.83446 6181 ft 100 kts 303°
2026-04-26 17:47 49.73573 7.82516 6189 ft 101 kts 303°
2026-04-26 17:47 49.73807 7.81896 6182 ft 101 kts 303°
2026-04-26 17:47 49.74260 7.80687 6182 ft 97 kts 303°
2026-04-26 17:47 49.74597 7.79791 6182 ft 97 kts 303°
2026-04-26 17:48 49.74940 7.78882 6181 ft 98 kts 303°
2026-04-26 17:48 49.75282 7.77973 6185 ft 98 kts 304°
2026-04-26 17:48 49.75626 7.77057 6184 ft 98 kts 304°
2026-04-26 17:48 49.75972 7.76137 6190 ft 99 kts 304°
2026-04-26 17:49 49.76319 7.75213 6185 ft 99 kts 304°
2026-04-26 17:49 49.76664 7.74295 6191 ft 98 kts 304°
2026-04-26 17:49 49.77009 7.73376 6190 ft 99 kts 303°
2026-04-26 17:49 49.77357 7.72449 6188 ft 100 kts 303°
2026-04-26 17:50 49.77703 7.71523 6191 ft 97 kts 303°
2026-04-26 17:50 49.78042 7.70622 6138 ft 94 kts 303°
2026-04-26 17:50 49.78376 7.69730 6040 ft 99 kts 303°
2026-04-26 17:50 49.78727 7.68796 5918 ft 100 kts 303°
2026-04-26 17:51 49.79067 7.67886 5903 ft 95 kts 303°
2026-04-26 17:51 49.79391 7.67017 5899 ft 92 kts 303°
2026-04-26 17:51 49.79710 7.66164 5896 ft 91 kts 303°
2026-04-26 17:51 49.80029 7.65314 5892 ft 91 kts 304°
2026-04-26 17:52 49.80343 7.64472 5888 ft 90 kts 303°
2026-04-26 17:52 49.80656 7.63637 5895 ft 89 kts 303°
2026-04-26 17:52 49.80966 7.62807 5892 ft 89 kts 303°
2026-04-26 17:52 49.81278 7.61972 5890 ft 90 kts 303°
2026-04-26 17:53 49.81592 7.61132 5894 ft 91 kts 303°
2026-04-26 17:53 49.81907 7.60289 5887 ft 90 kts 303°
2026-04-26 17:53 49.82238 7.59408 5640 ft 97 kts 303°
2026-04-26 17:54 49.82920 7.57581 5095 ft 95 kts 302°
2026-04-26 17:54 49.83245 7.56709 4813 ft 94 kts 302°
2026-04-26 17:54 49.83571 7.55833 4535 ft 95 kts 303°
2026-04-26 17:54 49.83909 7.54928 4251 ft 99 kts 304°
2026-04-26 17:55 49.84253 7.54007 3993 ft 98 kts 304°
2026-04-26 17:55 49.84575 7.53135 3862 ft 90 kts 305°
2026-04-26 17:55 49.84883 7.52304 3714 ft 87 kts 306°
2026-04-26 17:55 49.85180 7.51506 3580 ft 85 kts 306°
2026-04-26 17:56 49.85468 7.50732 3497 ft 77 kts 305°
2026-04-26 17:56 49.85966 7.49390 3493 ft 78 kts 308°
2026-04-26 17:57 49.86511 7.47732 3456 ft 100 kts 287°
2026-04-26 17:57 49.86527 7.46639 3507 ft 98 kts 273°
2026-04-26 17:57 49.86491 7.45549 3512 ft 106 kts 268°
2026-04-26 17:57 49.86440 7.44407 3575 ft 108 kts 270°
2026-04-26 17:58 49.86177 7.40835 3535 ft 113 kts 264°
2026-04-26 17:59 49.86009 7.38367 3384 ft 115 kts 272°
2026-04-26 17:59 49.86105 7.37176 3334 ft 111 kts 290°
2026-04-26 17:59 49.86422 7.36127 3300 ft 106 kts 307°
2026-04-26 17:59 49.86827 7.35199 3341 ft 103 kts 309°
2026-04-26 18:00 49.87184 7.34206 3331 ft 108 kts 297°
2026-04-26 18:00 49.87439 7.33167 3418 ft 103 kts 294°
2026-04-26 18:00 49.87688 7.32122 3470 ft 102 kts 295°
2026-04-26 18:00 49.87974 7.31130 3453 ft 100 kts 300°
2026-04-26 18:01 49.88289 7.30198 3418 ft 98 kts 302°
2026-04-26 18:01 49.88588 7.29314 3414 ft 89 kts 302°
2026-04-26 18:01 49.88873 7.28470 3370 ft 90 kts 307°
2026-04-26 18:01 49.89179 7.27654 3389 ft 83 kts 304°
2026-04-26 18:02 49.89487 7.26882 3300 ft 79 kts 308°
2026-04-26 18:02 49.89583 7.26638 3260 ft 78 kts 304°
2026-04-26 18:02 49.90035 7.25457 3086 ft 78 kts 307°
2026-04-26 18:02 49.90294 7.24736 2944 ft 76 kts 305°
2026-04-26 18:03 49.90685 7.24211 2763 ft 72 kts 339°
2026-04-26 18:03 49.91125 7.23869 2569 ft 70 kts 344°
2026-04-26 18:03 49.91591 7.23688 2396 ft 70 kts 358°
2026-04-26 18:03 49.92050 7.23716 2243 ft 66 kts 19°
2026-04-26 18:04 49.92444 7.24030 1987 ft 62 kts 26°
2026-04-26 18:04 49.92792 7.24320 1852 ft 53 kts 35°
2026-04-26 18:04 49.93099 7.24633 1750 ft 53 kts 31°
2026-04-26 18:05 49.93667 7.25191 1647 ft 47 kts 31°
2026-04-26 18:05 49.93923 7.25435 1625 ft 31 kts 33°
2026-04-26 18:05 49.93957 7.25529 1625 ft 10 kts 161°
2026-04-26 18:05 49.93887 7.25661 1627 ft 21 kts 128°
2026-04-26 18:06 49.93823 7.25812 1628 ft 8 kts 120°
2026-04-26 18:06 49.93843 7.25903 1627 ft 3 kts 33°
2026-04-26 18:06 49.93847 7.25901 1627 ft 0 kts 296°
2026-04-26 18:06 49.93843 7.25883 1627 ft 0 kts 193°
2026-04-26 18:07 49.93815 7.25871 1628 ft 6 kts 203°
2026-04-26 18:07 49.93813 7.25869 1628 ft 0 kts 202°
2026-04-26 18:07 49.93808 7.25864 1628 ft 2 kts 263°
2026-04-26 18:07 49.93821 7.25847 1628 ft 3 kts 25°
2026-04-26 18:08 49.93928 7.25993 1624 ft 21 kts 33°
2026-04-26 18:08 49.94065 7.26127 1623 ft 25 kts 36°
2026-04-26 18:08 49.94143 7.26212 1622 ft 15 kts 30°
2026-04-26 18:08 49.94197 7.26267 1624 ft 9 kts 29°
2026-04-26 18:09 49.94289 7.26358 1623 ft 17 kts 32°
2026-04-26 18:09 49.94366 7.26436 1617 ft 10 kts 37°
2026-04-26 18:09 49.94379 7.26462 1617 ft 0 kts 90°
2026-04-26 18:09 49.94378 7.26498 1619 ft 1 kts 146°
2026-04-26 18:10 49.94370 7.26498 1618 ft 1 kts 255°
2026-04-26 18:10 49.94370 7.26496 1618 ft 0 kts 299°
2026-04-26 18:22 49.94375 7.26484 1618 ft 5 kts 302°
2026-04-26 18:22 49.94395 7.26463 1621 ft 2 kts 34°
2026-04-26 18:23 49.94415 7.26476 1616 ft 7 kts 350°
2026-04-26 18:23 49.94456 7.26408 1617 ft 9 kts 306°
2026-04-26 18:23 49.94489 7.26330 1619 ft 8 kts 302°
2026-04-26 18:23 49.94502 7.26299 1620 ft 0 kts 302°
2026-04-26 18:26 49.94508 7.26282 1621 ft 7 kts 301°
2026-04-26 18:26 49.94549 7.26185 1618 ft 12 kts 306°